• In Hungary
  • List of Countries
  • For 7 days
  • Water Temperature
  • Satellite Maps
  • Weather Map
  • News
  • Weather Widgets
  • user-avatar
    Login

    Hourly Weather Staroe Tataurovo

    Today, 12 December, Tuesday

    Time Temperature Precipitation Wind Pressure Humidity
    00:00 -26°C° 0 mm 2 mps 728 mmHg 89%
    01:00 -26°C° 0 mm 2 mps 728 mmHg 89%
    02:00 -26°C° 0 mm 2 mps 728 mmHg 89%
    03:00 -26°C° 0 mm 2 mps 728 mmHg 89%
    04:00 -26°C° 0 mm 2 mps 728 mmHg 88%
    05:00 -26°C° 0 mm 2 mps 728 mmHg 88%
    06:00 -26°C° 0 mm 2 mps 728 mmHg 87%
    07:00 -26°C° 0 mm 2 mps 727 mmHg 87%
    08:00 -25°C° 0 mm 2 mps 727 mmHg 85%
    09:00 -24°C° 0 mm 2 mps 727 mmHg 83%
    10:00 -21°C° 0 mm 2 mps 727 mmHg 81%
    11:00 -20°C° 0 mm 2 mps 727 mmHg 79%
    12:00 -19°C° 0 mm 2 mps 726 mmHg 76%
    13:00 -18°C° 0 mm 2 mps 726 mmHg 74%
    14:00 -19°C° 0 mm 2 mps 726 mmHg 77%
    15:00 -20°C° 0 mm 2 mps 725 mmHg 80%
    16:00 -23°C° 0 mm 2 mps 725 mmHg 83%
    17:00 -23°C° 0 mm 2 mps 725 mmHg 83%
    18:00 -23°C° 0 mm 2 mps 725 mmHg 82%
    19:00 -23°C° 0 mm 2 mps 725 mmHg 81%
    20:00 -23°C° 0 mm 2 mps 725 mmHg 81%
    21:00 -23°C° 0 mm 2 mps 725 mmHg 82%
    22:00 -23°C° 0 mm 2 mps 725 mmHg 82%
    23:00 -21°C° 0 mm 2 mps 725 mmHg 82%

    Tomorrow, 13 December, Wednesday

    Time Temperature Precipitation Wind Pressure Humidity
    00:00 -21°C° 0 mm 2 mps 725 mmHg 82%
    01:00 -21°C° 0 mm 2 mps 725 mmHg 81%
    02:00 -21°C° 0 mm 2 mps 725 mmHg 82%
    03:00 -21°C° 0 mm 2 mps 725 mmHg 83%
    04:00 -21°C° 0 mm 2 mps 725 mmHg 84%
    05:00 -20°C° 0.1 mm 2 mps 725 mmHg 86%
    06:00 -20°C° 0.1 mm 2 mps 726 mmHg 89%
    07:00 -18°C° 0.1 mm 1 mps 726 mmHg 91%
    08:00 -17°C° 0.1 mm 1 mps 726 mmHg 90%
    09:00 -16°C° 0.1 mm 1 mps 726 mmHg 89%
    10:00 -16°C° 0.1 mm 1 mps 727 mmHg 89%
    11:00 -15°C° 0.1 mm 1 mps 727 mmHg 88%
    12:00 -14°C° 0.1 mm 1 mps 726 mmHg 87%
    13:00 -13°C° 0.1 mm 1 mps 726 mmHg 86%
    14:00 -14°C° 0.1 mm 1 mps 727 mmHg 89%
    15:00 -14°C° 0.1 mm 1 mps 727 mmHg 91%
    16:00 -15°C° 0.1 mm 1 mps 727 mmHg 94%
    17:00 -17°C° 0.1 mm 2 mps 727 mmHg 94%
    18:00 -17°C° 0.1 mm 2 mps 728 mmHg 94%
    19:00 -17°C° 0.1 mm 2 mps 728 mmHg 94%
    20:00 -16°C° 0.1 mm 2 mps 728 mmHg 94%
    21:00 -16°C° 0.1 mm 2 mps 728 mmHg 95%
    22:00 -16°C° 0.1 mm 2 mps 728 mmHg 95%
    23:00 -16°C° 0.1 mm 2 mps 729 mmHg 95%

    Day after tomorrow, 14 December, Thursday

    Time Temperature Precipitation Wind Pressure Humidity
    00:00 -16°C° 0.1 mm 2 mps 729 mmHg 95%
    01:00 -16°C° 0.1 mm 2 mps 729 mmHg 95%
    02:00 -16°C° 0.1 mm 2 mps 729 mmHg 94%
    03:00 -17°C° 0.1 mm 3 mps 729 mmHg 94%
    04:00 -17°C° 0.1 mm 3 mps 728 mmHg 94%
    05:00 -17°C° 0.1 mm 3 mps 729 mmHg 94%
    06:00 -17°C° 0.1 mm 3 mps 729 mmHg 94%
    07:00 -17°C° 0.1 mm 3 mps 729 mmHg 94%
    08:00 -16°C° 0 mm 3 mps 729 mmHg 92%
    09:00 -16°C° 0 mm 3 mps 730 mmHg 90%
    10:00 -15°C° 0 mm 3 mps 730 mmHg 88%
    11:00 -16°C° 0 mm 4 mps 730 mmHg 86%
    12:00 -16°C° 0 mm 4 mps 729 mmHg 84%
    13:00 -15°C° 0 mm 4 mps 729 mmHg 83%
    14:00 -16°C° 0 mm 4 mps 729 mmHg 85%
    15:00 -16°C° 0 mm 3 mps 729 mmHg 87%
    16:00 -17°C° 0 mm 3 mps 729 mmHg 89%
    17:00 -17°C° 0.1 mm 3 mps 730 mmHg 91%
    18:00 -17°C° 0.1 mm 3 mps 730 mmHg 92%
    19:00 -17°C° 0.1 mm 3 mps 730 mmHg 93%
    20:00 -17°C° 0.1 mm 3 mps 730 mmHg 92%
    21:00 -17°C° 0.1 mm 3 mps 730 mmHg 92%
    22:00 -17°C° 0.1 mm 3 mps 730 mmHg 92%
    23:00 -18°C° 0.1 mm 4 mps 730 mmHg 91%

    15 December, Friday

    Time Temperature Precipitation Wind Pressure Humidity
    00:00 -18°C° 0.1 mm 4 mps 730 mmHg 91%
    01:00 -18°C° 0.1 mm 4 mps 730 mmHg 90%
    02:00 -18°C° 0.1 mm 4 mps 729 mmHg 90%
    03:00 -18°C° 0.1 mm 4 mps 729 mmHg 90%
    04:00 -19°C° 0.1 mm 4 mps 729 mmHg 90%
    05:00 -19°C° 0 mm 4 mps 729 mmHg 90%
    06:00 -20°C° 0 mm 4 mps 729 mmHg 91%
    07:00 -20°C° 0 mm 4 mps 729 mmHg 91%
    08:00 -20°C° 0 mm 4 mps 730 mmHg 90%
    09:00 -19°C° 0 mm 4 mps 730 mmHg 89%
    10:00 -19°C° 0 mm 4 mps 730 mmHg 87%
    11:00 -18°C° 0.1 mm 4 mps 730 mmHg 86%
    12:00 -19°C° 0.1 mm 5 mps 730 mmHg 85%
    13:00 -18°C° 0.1 mm 5 mps 729 mmHg 84%
    14:00 -18°C° 0.1 mm 4 mps 730 mmHg 87%
    15:00 -18°C° 0.1 mm 4 mps 730 mmHg 89%
    16:00 -18°C° 0.1 mm 3 mps 730 mmHg 91%
    17:00 -18°C° 0.1 mm 3 mps 730 mmHg 92%
    18:00 -18°C° 0.1 mm 3 mps 730 mmHg 92%
    19:00 -18°C° 0.1 mm 3 mps 730 mmHg 93%
    20:00 -18°C° 0.1 mm 3 mps 730 mmHg 93%
    21:00 -18°C° 0.1 mm 3 mps 730 mmHg 93%
    22:00 -18°C° 0.1 mm 3 mps 730 mmHg 94%
    23:00 -16°C° 0.1 mm 2 mps 730 mmHg 94%

    16 December, Saturday

    Time Temperature Precipitation Wind Pressure Humidity
    00:00 -16°C° 0.1 mm 2 mps 729 mmHg 94%
    01:00 -16°C° 0.1 mm 2 mps 729 mmHg 94%
    02:00 -16°C° 0.1 mm 2 mps 729 mmHg 94%
    03:00 -15°C° 0.1 mm 2 mps 728 mmHg 94%
    04:00 -15°C° 0.1 mm 2 mps 728 mmHg 94%
    05:00 -14°C° 0.2 mm 2 mps 727 mmHg 95%
    06:00 -15°C° 0.2 mm 3 mps 727 mmHg 95%
    07:00 -14°C° 0.2 mm 3 mps 727 mmHg 95%
    08:00 -13°C° 0.3 mm 3 mps 726 mmHg 93%
    09:00 -12°C° 0.3 mm 4 mps 726 mmHg 91%
    10:00 -11°C° 0.3 mm 5 mps 725 mmHg 89%
    11:00 -11°C° 0.1 mm 5 mps 725 mmHg 88%
    12:00 -11°C° 0.1 mm 5 mps 724 mmHg 86%
    13:00 -10°C° 0.1 mm 5 mps 724 mmHg 85%
    14:00 -10°C° 0.1 mm 6 mps 724 mmHg 85%
    15:00 -11°C° 0.1 mm 6 mps 724 mmHg 86%
    16:00 -11°C° 0.1 mm 6 mps 724 mmHg 86%
    17:00 -11°C° 0.1 mm 5 mps 724 mmHg 86%
    18:00 -12°C° 0.1 mm 5 mps 724 mmHg 86%
    19:00 -12°C° 0.1 mm 5 mps 724 mmHg 86%
    20:00 -12°C° 0.1 mm 5 mps 724 mmHg 87%
    21:00 -13°C° 0.1 mm 5 mps 724 mmHg 88%
    22:00 -13°C° 0.1 mm 5 mps 724 mmHg 89%
    23:00 -12°C° 0.1 mm 4 mps 724 mmHg 89%

    17 December, Sunday

    Time Temperature Precipitation Wind Pressure Humidity
    00:00 -14°C° 0.1 mm 4 mps 724 mmHg 90%
    01:00 -14°C° 0.1 mm 4 mps 724 mmHg 90%
    02:00 -15°C° 0.1 mm 4 mps 724 mmHg 90%
    03:00 -14°C° 0.1 mm 3 mps 724 mmHg 90%
    04:00 -15°C° 0.1 mm 3 mps 724 mmHg 91%
    05:00 -16°C° 0 mm 3 mps 725 mmHg 91%
    06:00 -16°C° 0 mm 3 mps 725 mmHg 92%
    07:00 -17°C° 0 mm 3 mps 725 mmHg 93%
    08:00 -16°C° 0.1 mm 3 mps 725 mmHg 91%
    09:00 -15°C° 0.1 mm 3 mps 725 mmHg 90%
    10:00 -15°C° 0.1 mm 4 mps 726 mmHg 89%
    11:00 -15°C° 0.2 mm 4 mps 725 mmHg 88%
    12:00 -14°C° 0.2 mm 5 mps 725 mmHg 87%
    13:00 -14°C° 0.2 mm 5 mps 725 mmHg 87%
    14:00 -14°C° 0.2 mm 5 mps 725 mmHg 87%
    15:00 -14°C° 0.2 mm 5 mps 725 mmHg 88%
    16:00 -15°C° 0.2 mm 5 mps 725 mmHg 89%
    17:00 -15°C° 0.1 mm 5 mps 725 mmHg 89%
    18:00 -15°C° 0.1 mm 5 mps 725 mmHg 89%
    19:00 -15°C° 0.1 mm 5 mps 726 mmHg 89%
    20:00 -17°C° 0.1 mm 5 mps 726 mmHg 89%
    21:00 -17°C° 0.1 mm 5 mps 726 mmHg 89%
    22:00 -17°C° 0.1 mm 5 mps 726 mmHg 89%
    23:00 -17°C° 0.1 mm 5 mps 726 mmHg 89%
    Show more